KZ1X Weather Reports


time (UTC)temp
C
wind
direction
speed
KPH
gust
KPH
rain 1hr
cm
rain 24hr
cm
rain mn
cm
humidity
%
barometer
mb
20260503050041 5 0 0.0 0.0 0.00 0.00 0.00 94 1015.5
20260503044559 5 0 0.0 0.0 0.00 0.00 0.00 94 1015.4
20260503043041 5 0 0.0 0.0 0.00 0.00 0.00 94 1015.4
20260503041550 6 0 0.0 0.0 0.00 0.00 0.00 94 1015.3
20260503040050 6 0 0.0 0.0 0.00 0.00 0.00 95 1015.1
20260503034540 6 0 0.0 1.6 0.00 0.00 0.00 95 1015.1
20260503033042 6 0 0.0 0.0 0.00 0.00 0.00 95 1015.1
20260503031537 6 0 0.0 0.0 0.00 0.00 0.00 94 1014.9
20260503030037 6 0 0.0 0.0 0.00 0.00 0.00 94 1014.6
20260503024544 6 0 0.0 0.0 0.00 0.00 0.00 94 1014.5
20260503023047 7 0 0.0 0.0 0.00 0.00 0.00 93 1014.4
20260503021550 7 0 0.0 0.0 0.00 0.00 0.00 93 1014.3
20260503020044 7 0 0.0 0.0 0.00 0.00 0.00 93 1014.2
20260503014546 8 0 0.0 0.0 0.00 0.00 0.00 92 1014.1
20260503013036 8 0 0.0 0.0 0.00 0.00 0.00 91 1013.8
20260503011537 8 0 0.0 0.0 0.00 0.00 0.00 91 1013.9
20260503010045 8 0 0.0 0.0 0.00 0.00 0.00 90 1013.6
20260503004540 9 0 0.0 0.0 0.00 0.00 0.00 89 1013.5
20260503003037 10 0 0.0 0.0 0.00 0.00 0.00 87 1013.3
20260503001543 10 0 0.0 0.0 0.00 0.00 0.00 85 1013.2
20260503000037 11 0 0.0 0.0 0.00 0.00 0.00 81 1012.7
20260502234551 11 0 0.0 0.0 0.00 0.00 0.00 80 1012.4
20260502233041 11 0 0.0 0.0 0.00 0.00 0.00 77 1012.2
20260502231543 12 0 0.0 0.0 0.00 0.00 0.00 75 1012.0
20260502230041 13 0 0.0 0.0 0.00 0.00 0.00 72 1012.0
20260502224540 13 0 0.0 0.0 0.00 0.00 0.00 67 1011.9
20260502223037 13 0 0.0 0.0 0.00 0.00 0.00 69 1011.9
20260502221544 13 0 0.0 1.6 0.00 0.00 0.00 70 1011.8
20260502220053 13 0 0.0 1.6 0.00 0.00 0.00 72 1011.9
20260502214541 13 0 0.0 1.6 0.00 0.00 0.00 71 1011.8
20260502213042 13 0 0.0 4.8 0.00 0.00 0.00 71 1011.7
20260502211541 13 0 0.0 3.2 0.00 0.00 0.00 71 1011.7
20260502210052 13 209 0.0 3.2 0.00 0.00 0.00 71 1011.9
20260502204548 14 200 0.0 4.8 0.00 0.00 0.00 68 1011.8
20260502203057 14 0 0.0 4.8 0.00 0.00 0.00 69 1011.7
20260502201544 14 66 0.0 4.8 0.00 0.00 0.00 69 1011.7
20260502200041 14 210 0.0 1.6 0.00 0.00 0.00 71 1011.8
20260502194542 15 0 0.0 1.6 0.00 0.00 0.00 69 1011.7
20260502193037 15 0 0.0 1.6 0.00 0.00 0.00 73 1011.9
20260502191544 15 0 0.0 11.3 0.00 0.00 0.00 70 1012.0
20260502190045 15 0 0.0 1.6 0.00 0.00 0.00 70 1012.1
20260502184542 15 0 1.6 6.4 0.00 0.00 0.00 71 1012.2
20260502183050 15 0 0.0 4.8 0.00 0.00 0.00 71 1012.4
20260502181537 15 311 0.0 3.2 0.00 0.00 0.00 71 1012.6
20260502163054 13 143 0.0 6.4 0.00 0.00 0.00 79 1013.4
20260502161543 12 151 0.0 3.2 0.00 0.00 0.00 80 1013.9
20260502151539 12 96 0.0 6.4 0.00 0.00 0.00 82 1013.5
20260502123037 10 0 0.0 1.6 0.00 0.00 0.00 91 1013.3
20260502121539 10 229 0.0 1.6 0.00 0.00 0.00 92 1013.1
20260502114547 10 0 0.0 0.0 0.00 0.00 0.00 93 1013.2
20260502113037 10 0 0.0 0.0 0.00 0.00 0.00 93 1013.1
20260502111540 10 0 0.0 0.0 0.00 0.00 0.00 93 1012.7
20260502110041 10 0 0.0 0.0 0.00 0.00 0.00 92 1013.1
20260502104536 10 0 0.0 0.0 0.00 0.00 0.00 92 1013.1
20260502103033 10 0 0.0 0.0 0.00 0.00 0.00 93 1013.2
20260502101538 10 119 0.0 1.6 0.00 0.00 0.00 94 1013.3
20260502070050 10 0 0.0 0.0 0.00 0.00 0.00 95 1012.2
20260502064547 10 0 0.0 0.0 0.00 0.00 0.00 95 1012.1
20260502063040 10 0 0.0 0.0 0.00 0.00 0.00 94 1012.2
20260502061534 10 0 0.0 0.0 0.00 0.00 0.00 94 1012.2
20260502060044 10 0 0.0 0.0 0.00 0.00 0.00 95 1012.4
20260502054539 10 0 0.0 0.0 0.00 0.00 0.00 94 1012.4
20260502053042 10 0 0.0 0.0 0.00 0.00 0.00 94 1012.6
20260502051539 10 0 0.0 0.0 0.00 0.00 0.00 94 1012.8